Location: Normandy Village
(37.8755°N, 122.2655°W)
Time: 13:24:11
(UTC+00:00)

Cosmos 1300 Rocket - Pass Details

Date: 22 September 2019
Orbit: 603 x 626 km, 82.5° (Epoch: 21 October)

Event Time Altitude Azimuth Distance (km) Brightness Sun altitude
Rises 13:11:23 0° 356° (N) 2,880 7.1 -9.8°
Reaches altitude 10° 13:13:38 10° 0° (N) 1,975 6.3 -9.3°
Maximum altitude 13:17:57 60° 81° (E) 704 4.2 -8.5°
Drops below altitude 10° 13:22:16 10° 162° (SSE) 1,975 6.3 -7.6°
Sets 13:24:31 0° 166° (SSE) 2,879 7.1 -7.2°
